Location: �A�n Sefra
(34.9681°N, 0.4346°E)
Time: 01:51:18
(UTC+00:00)

Cosmos 2082 Rocket - Pass Details

Date: 21 October 2019
Orbit: 832 x 854 km, 71.0° (Epoch: 17 November)

Event Time Altitude Azimuth Distance (km) Brightness Sun altitude
Rises 19:43:50 0° 329° (NNW) 3,422 5.9 -30.9°
Reaches altitude 10° 19:46:28 10° 321° (NW) 2,480 5.2 -31.4°
Maximum altitude 19:51:36 36° 256° (WSW) 1,318 3.5 -32.4°
Enters shadow 19:54:00 25° 212° (SSW) 1,640 3.8 -32.9°
